Theta_e
310 313 315 317 320 320 320 321 317 318 317 311 311 312 314 318 319 318 321 324 321 330 332 333 332 325 332 336 334 335 337 341 343 338 338 351 352 349 352 350 350 350 351 350 346 338 335 332 328 329 329 329 330 332 335 337 338 338 335 335 339 339 338 338 339 340 341 340 339 337 336 333 330 330 330 329 327 327 329 333 339 340 340 339 339 338 338 339 338 338 339 339 339 338 336 335 335
316 315 316 319 321 321 322 321 316 313 312 307 310 313 315 318 318 321 327 329 330 338 341 339 337 331 337 341 339 337 338 346 350 349 348 352 351 351 350 350 351 350 351 349 346 342 342 338 328 328 328 328 328 328 332 337 338 338 337 338 340 338 337 337 338 339 339 337 336 336 334 334 334 335 335 335 333 328 329 334 339 340 340 339 339 338 337 337 338 338 338 338 338 338 336 334 335
319 314 316 320 322 321 322 320 313 309 308 306 309 315 317 317 320 327 332 334 338 342 343 342 341 338 338 340 340 341 345 347 348 349 349 350 351 351 349 351 351 350 351 349 345 343 345 338 328 327 326 326 326 326 329 334 339 340 340 339 339 337 336 336 336 336 335 334 334 334 335 337 338 339 339 339 337 332 334 338 340 340 340 339 338 338 337 337 338 337 338 338 338 337 335 334 334
316 315 318 321 321 318 320 318 313 309 307 306 307 315 317 317 321 328 335 339 341 341 342 343 343 342 343 344 344 344 348 348 348 350 350 350 351 349 351 352 350 350 350 349 346 345 344 336 328 327 325 325 324 325 326 331 337 338 337 336 336 335 334 334 333 332 332 332 334 336 338 339 340 340 340 340 339 338 338 339 339 338 339 338 338 338 337 337 337 337 337 337 338 337 335 334 334
314 315 318 321 319 316 319 318 314 310 308 309 309 314 317 316 319 323 329 339 342 341 341 341 342 343 345 348 346 346 350 349 349 350 350 351 351 350 351 352 350 350 349 349 346 346 344 333 328 327 326 325 323 323 324 326 330 331 332 332 332 331 332 332 332 332 334 335 337 338 339 339 340 340 340 340 340 340 340 340 339 338 337 337 338 338 337 337 336 337 337 337 338 336 335 335 335
314 317 318 320 319 316 317 314 311 310 312 315 313 316 317 317 318 317 319 327 336 341 341 339 340 340 344 348 347 348 351 350 348 350 350 351 350 350 352 351 350 349 349 350 346 346 342 333 329 327 326 326 324 324 323 323 325 328 329 331 331 332 333 334 334 335 336 337 338 339 339 339 340 340 340 340 341 341 341 341 340 339 335 333 336 338 338 337 337 336 337 337 337 334 334 335 334
315 317 317 317 316 316 314 311 310 310 314 317 316 317 317 317 317 317 316 318 324 332 337 338 337 337 343 348 347 350 351 352 351 349 350 350 350 350 351 350 350 349 350 350 349 347 339 332 329 327 327 327 326 325 324 323 325 326 329 332 333 334 334 334 335 335 336 336 337 338 339 339 340 341 340 340 341 341 341 341 340 340 336 332 334 337 338 337 337 337 336 337 335 332 332 334 334
316 316 316 316 315 315 313 311 312 312 315 316 316 317 315 316 316 317 317 317 320 328 334 336 336 337 342 346 349 351 351 351 352 351 350 350 350 350 350 350 350 349 350 349 349 346 337 332 330 328 328 328 327 327 326 325 326 327 328 331 333 333 332 332 333 333 334 335 337 338 339 339 339 340 340 341 341 341 341 341 340 340 337 333 333 336 338 337 336 337 336 336 335 330 329 333 333
316 316 316 315 315 312 311 311 313 314 316 316 316 316 316 316 316 317 317 317 320 325 332 333 334 336 340 347 350 350 350 352 352 350 350 350 350 350 350 349 350 349 350 348 347 345 337 333 332 330 329 328 328 327 328 328 327 327 328 329 330 330 330 331 331 331 331 334 337 337 338 338 338 339 340 340 340 340 341 340 339 339 338 335 333 333 336 337 336 337 337 336 336 332 329 331 332
315 316 315 314 315 311 308 310 312 314 316 316 315 315 316 316 315 317 316 318 317 322 333 336 336 337 338 345 349 349 351 352 351 350 350 350 350 349 349 349 349 348 349 348 347 345 337 334 333 331 329 328 328 328 328 329 328 328 328 328 328 328 329 330 330 329 329 333 336 336 335 335 336 338 339 339 340 340 339 339 339 338 338 336 335 334 335 335 335 336 336 336 336 333 331 331 332
315 314 314 313 311 308 307 309 311 314 316 315 315 316 317 317 317 317 316 318 317 321 337 339 338 339 338 345 349 349 351 352 351 350 350 350 349 349 350 349 349 348 349 346 345 344 339 336 334 332 330 329 329 328 329 330 330 329 329 328 328 329 330 331 330 330 329 332 333 331 330 330 333 335 337 338 339 339 338 339 339 337 336 335 334 334 335 334 334 334 335 336 334 333 331 331 331
315 314 314 311 309 308 310 310 311 315 315 315 316 316 319 319 317 316 316 317 317 325 338 340 339 340 340 343 348 350 351 351 351 350 349 349 349 349 349 349 348 348 348 345 344 344 341 338 336 334 333 331 330 330 332 332 332 332 332 331 330 330 331 332 331 329 328 328 326 325 327 328 331 334 336 337 338 337 337 338 337 336 336 335 334 332 331 331 333 334 334 334 332 332 331 331 330
315 315 313 311 311 312 312 311 312 313 314 316 316 316 324 325 319 320 320 317 320 327 336 340 340 341 343 345 348 350 351 351 351 350 350 349 349 349 348 349 349 348 348 346 344 344 343 339 338 339 336 334 333 334 334 334 334 335 333 332 331 332 332 330 328 326 324 324 324 326 328 328 329 333 335 336 336 336 337 337 337 335 334 334 332 329 328 329 331 332 333 332 331 330 330 330 328
315 315 313 312 313 314 312 311 312 312 312 316 316 317 328 334 330 329 324 320 326 334 338 341 340 341 345 346 347 348 349 351 350 350 349 349 348 348 348 348 348 349 348 346 344 343 343 340 340 340 338 335 336 336 335 335 335 335 333 332 332 332 330 327 326 324 324 326 327 329 329 328 329 332 334 335 335 335 336 336 335 334 334 332 328 326 327 328 328 329 330 330 330 329 328 327 327
315 315 314 313 313 313 312 312 312 311 312 316 316 315 325 335 337 334 329 327 335 341 342 343 342 342 340 339 343 347 349 349 349 349 349 348 348 348 348 347 346 347 346 344 343 343 341 341 341 340 339 337 337 337 336 336 335 334 334 332 331 331 329 325 324 325 328 329 329 330 329 328 329 330 331 333 333 333 334 335 334 332 333 329 325 325 327 327 327 327 327 327 328 328 327 327 327
316 314 313 313 311 311 312 313 313 311 313 317 316 315 320 330 336 337 337 336 340 344 342 342 343 340 337 337 341 348 349 348 348 348 348 347 347 348 347 344 343 345 344 343 341 343 341 341 341 341 340 339 339 338 337 337 335 335 334 333 332 331 329 325 326 329 330 331 331 331 330 330 331 330 331 331 331 332 333 334 332 331 330 328 325 325 327 327 327 326 327 326 326 326 327 326 327
315 314 314 312 311 310 313 314 313 312 315 316 316 316 317 325 333 336 338 339 341 343 343 342 342 340 341 343 346 349 349 347 347 348 347 347 345 346 345 343 342 342 344 344 339 341 341 340 340 341 341 340 339 338 337 337 335 336 335 334 334 332 330 325 327 330 331 332 331 331 333 335 334 333 333 333 332 331 331 330 330 329 329 327 325 325 327 327 327 327 326 326 326 326 326 326 327
313 313 313 311 312 313 313 315 314 315 316 316 316 315 315 319 328 335 336 338 341 340 342 343 343 343 344 348 348 349 347 346 347 348 346 346 345 346 345 342 342 342 343 342 337 338 340 339 340 340 339 340 340 337 336 337 336 336 336 335 334 333 329 324 328 331 332 332 331 333 338 339 336 336 337 337 336 333 330 330 330 329 328 328 327 326 326 327 327 327 326 326 326 325 326 328 329
313 314 312 311 313 314 314 315 316 316 315 315 316 315 315 315 322 333 334 335 338 336 338 340 342 344 344 347 349 347 347 347 347 346 346 346 346 344 344 342 342 343 342 339 335 337 339 338 339 339 339 339 339 338 338 339 339 338 336 334 334 334 330 329 333 335 335 335 335 337 340 340 338 338 338 337 336 334 331 330 329 329 329 329 328 328 327 327 327 326 326 325 326 326 328 329 331
313 314 314 314 315 315 315 315 315 315 314 315 315 314 315 315 318 327 329 329 333 331 332 334 336 342 345 345 347 347 346 347 346 346 346 346 345 344 343 342 341 341 341 339 336 336 337 337 338 338 338 338 337 340 339 339 341 339 335 334 334 335 333 334 335 336 338 338 338 340 340 339 338 338 336 334 334 335 332 329 329 330 329 328 329 330 329 328 327 326 325 325 328 329 329 329 330
314 314 314 314 315 314 314 314 314 315 314 314 314 314 314 315 317 322 327 325 327 326 327 329 329 338 346 344 346 348 347 347 346 345 345 345 344 344 342 342 341 340 338 338 337 335 335 337 337 337 338 338 338 340 339 338 339 338 335 334 335 334 334 334 333 335 339 339 339 339 339 338 337 337 336 335 335 336 335 332 331 332 332 330 330 333 331 330 331 330 328 328 330 330 329 329 329
314 314 313 314 314 313 314 315 314 314 313 313 313 314 314 315 318 321 325 325 324 325 328 330 330 337 345 343 345 348 346 346 346 344 343 343 343 343 341 341 340 339 338 337 337 336 336 336 337 338 338 339 339 339 338 337 338 338 335 335 336 335 335 335 334 336 339 339 338 338 338 338 337 337 337 337 336 336 335 334 334 334 335 334 333 334 332 332 334 333 331 331 331 330 330 330 329
312 313 314 313 314 313 314 314 313 313 313 313 313 314 313 313 316 318 322 326 324 327 329 329 332 338 345 345 344 347 346 345 345 343 342 342 341 341 340 340 339 338 337 336 336 337 336 336 337 338 338 338 338 337 338 338 338 339 336 336 338 336 335 337 337 337 337 338 338 338 338 337 337 337 337 337 335 335 335 334 334 335 335 334 335 335 332 332 333 332 332 330 330 330 330 330 329
312 313 313 314 313 313 314 314 313 313 313 313 313 313 313 313 315 316 319 323 322 328 331 328 333 341 345 343 343 346 346 345 344 342 341 341 341 340 340 339 338 337 336 336 336 337 337 337 337 337 337 337 337 337 337 337 337 337 336 337 338 336 336 337 337 337 336 336 338 339 338 337 337 337 337 336 336 335 334 334 334 335 335 335 335 335 333 331 331 331 332 330 329 330 329 329 328
312 312 314 314 313 313 313 314 313 313 313 313 313 313 314 314 315 315 316 319 323 329 330 330 337 342 343 343 344 346 346 345 343 341 340 341 341 340 339 339 338 336 336 336 336 336 336 336 337 336 336 336 335 334 335 335 335 336 336 337 336 333 335 335 335 336 335 336 338 338 338 338 338 338 338 337 338 337 335 335 335 335 336 335 335 335 335 332 331 332 331 330 329 330 330 329 327
313 312 313 313 313 314 313 313 313 313 313 312 313 313 314 314 314 315 315 321 326 328 330 334 340 342 343 343 345 346 342 341 340 340 340 340 341 340 339 338 337 336 336 336 336 336 334 335 336 335 335 335 334 333 335 336 335 336 337 337 334 331 332 333 333 335 336 337 339 338 338 339 339 338 338 338 338 338 336 336 335 334 336 337 336 335 335 334 332 332 331 330 330 330 330 329 328
313 313 313 314 312 313 313 313 313 313 313 313 313 314 314 314 314 314 318 325 329 330 333 338 341 342 343 342 344 343 339 338 338 338 339 340 341 340 339 337 336 336 336 336 335 335 335 334 336 335 334 336 335 334 336 336 336 335 336 335 334 332 332 332 333 336 338 338 339 339 339 339 338 338 338 338 337 337 336 336 335 335 336 337 336 335 336 335 333 332 331 331 331 331 331 330 328
313 312 312 312 312 313 313 312 313 313 313 314 313 314 314 314 314 315 323 329 330 331 336 339 341 342 342 343 344 341 338 337 336 335 337 340 340 339 338 337 337 336 336 337 335 334 336 335 336 335 333 333 333 332 334 337 336 335 334 333 333 333 333 335 336 338 339 339 339 339 339 338 338 338 338 338 336 337 337 336 336 337 337 336 335 335 336 335 334 334 333 332 332 332 331 330 329
312 312 312 312 312 312 312 313 313 313 313 313 313 312 313 315 314 315 325 330 330 332 337 340 341 342 341 343 344 341 338 336 334 333 336 340 340 339 338 337 336 336 335 337 337 336 335 334 334 333 331 330 332 334 335 337 338 337 335 333 333 335 337 338 338 338 339 338 338 338 338 337 337 337 337 336 336 338 338 337 338 338 337 336 336 336 335 335 334 334 333 333 333 332 331 331 330
311 312 311 312 312 312 313 313 313 312 313 313 313 309 311 316 314 318 326 329 331 332 336 339 341 341 341 344 344 341 338 336 335 334 335 338 340 339 338 337 336 335 336 336 337 336 334 332 332 334 334 334 335 336 337 338 339 338 337 336 337 338 339 338 337 338 338 337 337 337 337 337 337 336 336 336 336 338 338 338 338 337 337 337 336 336 336 335 335 334 333 333 333 332 332 331 331
312 311 311 311 310 310 313 313 312 312 312 313 313 309 311 316 315 320 327 329 329 329 334 338 341 342 342 344 344 341 339 337 335 333 336 339 339 339 337 337 337 335 336 336 336 335 332 331 332 334 336 337 337 337 337 338 338 339 338 338 338 339 339 338 337 338 338 338 337 336 335 336 337 336 336 336 336 337 337 337 337 337 337 336 335 336 336 336 336 335 333 333 334 333 333 333 333
312 310 310 310 309 310 314 313 312 313 312 313 313 309 312 316 315 320 328 328 328 328 334 337 340 343 341 341 343 341 339 337 334 333 337 338 338 339 337 337 337 336 336 337 337 335 333 334 335 336 336 337 338 336 337 338 339 339 339 339 339 339 338 337 336 337 337 337 336 335 334 335 336 336 336 336 337 337 337 337 337 337 337 336 335 335 336 336 336 335 334 334 334 334 333 333 332
312 310 308 309 309 310 312 313 313 313 313 312 311 310 312 315 314 318 324 328 327 326 333 338 340 342 341 340 341 341 339 336 334 335 338 337 338 338 337 337 337 336 336 337 338 337 335 335 336 337 337 337 338 337 338 340 340 340 339 338 338 337 335 334 335 335 335 336 335 335 335 335 336 336 336 337 337 337 337 337 337 337 337 336 335 335 335 335 335 334 334 334 335 334 333 332 332
310 310 309 311 310 309 310 312 314 314 313 313 313 312 313 314 316 316 321 326 327 326 332 338 340 342 342 341 339 339 339 336 335 338 339 339 338 338 337 338 337 337 337 337 338 338 337 336 336 337 337 337 338 339 341 341 340 338 337 336 336 334 333 333 333 332 333 334 335 334 334 335 337 337 336 337 337 337 337 337 337 336 337 336 336 335 334 333 332 333 333 332 333 334 332 332 331
310 310 309 310 311 309 310 312 314 314 313 313 314 313 313 314 316 317 321 325 328 327 332 337 339 341 342 342 340 338 338 337 337 339 340 339 339 339 337 338 338 339 338 337 339 338 337 336 336 337 337 339 340 341 341 340 338 336 336 335 334 333 332 332 331 331 332 333 334 334 334 335 336 337 337 337 337 336 336 336 336 336 336 336 336 335 332 330 328 330 331 329 331 333 333 332 331
312 311 310 310 309 310 312 314 314 314 314 314 314 314 315 314 315 318 323 329 330 329 334 338 338 340 341 341 341 340 339 337 338 340 339 338 338 338 338 338 338 339 339 338 338 338 337 336 336 335 337 340 341 341 340 338 337 336 335 333 332 331 330 330 329 330 331 331 332 334 335 335 335 336 336 336 336 335 336 335 335 335 336 336 335 334 332 330 327 329 330 329 330 333 333 333 332
313 312 311 310 309 309 312 315 315 315 315 315 315 315 315 316 316 316 323 330 331 332 335 337 338 339 340 340 340 341 339 336 338 339 339 337 337 338 338 338 338 339 339 338 338 338 337 337 336 335 337 340 340 340 340 338 336 335 334 331 330 329 329 329 329 330 331 331 332 335 335 335 335 335 336 335 335 335 335 335 334 334 335 335 335 333 331 331 329 330 331 330 332 333 333 333 332
313 311 310 310 310 310 313 315 314 314 315 315 316 316 314 317 316 317 325 328 328 331 335 335 337 338 339 340 340 341 339 335 336 339 339 337 337 337 338 338 338 338 339 339 339 339 337 337 336 336 338 340 341 340 338 337 334 333 331 329 328 328 327 328 328 331 331 331 331 333 334 333 333 334 334 334 335 334 334 335 334 334 334 334 334 333 331 331 331 331 332 332 332 333 333 332 332
313 312 310 310 311 312 314 316 315 314 314 315 316 315 314 317 316 318 323 324 327 333 337 337 338 339 338 339 340 341 340 336 336 338 338 338 337 337 338 339 339 339 339 339 338 337 337 338 337 338 339 340 341 340 336 335 335 333 332 330 328 326 327 328 330 330 330 330 330 331 333 333 333 333 333 333 334 335 335 335 334 334 333 333 333 333 332 331 331 331 332 332 332 332 331 332 331
313 312 310 309 311 311 311 314 316 316 317 317 317 315 316 319 318 317 320 326 333 335 336 338 338 338 339 339 339 340 340 338 337 337 337 338 338 337 337 337 338 337 337 337 337 335 336 337 337 338 340 340 340 340 337 336 335 333 331 331 329 326 327 329 331 330 330 329 330 329 330 332 333 333 333 333 333 333 334 334 333 333 333 333 333 333 333 332 331 331 332 332 333 332 331 331 331
312 314 312 310 312 311 312 315 317 318 319 319 316 312 314 317 317 316 319 326 332 331 331 336 336 337 337 338 339 340 340 340 339 337 337 338 337 335 333 331 332 333 333 336 338 338 338 337 337 339 340 340 340 339 337 335 334 332 331 329 328 326 327 329 329 329 329 328 328 328 328 329 330 331 332 331 331 332 333 333 332 331 332 332 332 333 333 333 332 332 331 331 331 331 331 330 330
311 313 313 313 314 313 315 316 316 315 315 318 316 310 311 315 315 317 320 322 325 327 328 330 332 334 335 336 339 339 339 340 340 339 338 337 334 330 330 330 330 331 333 336 337 337 338 337 337 338 338 339 339 337 335 335 334 333 331 329 328 327 327 327 327 328 327 326 326 327 327 327 327 328 329 328 328 329 329 330 329 329 329 330 330 331 330 331 331 331 331 331 331 331 331 331 330
309 312 313 313 315 315 316 316 314 311 312 318 318 313 310 312 314 317 320 319 321 327 328 327 331 333 332 335 337 339 339 338 339 338 337 335 332 331 331 332 332 332 334 335 334 334 334 335 336 335 334 335 336 335 334 335 334 332 331 329 328 326 325 325 326 326 325 324 324 324 325 327 326 326 327 327 327 326 326 326 326 326 325 326 327 328 328 328 327 328 330 331 330 330 331 331 330
310 313 314 313 314 316 316 315 313 312 314 317 317 315 311 310 314 319 319 318 321 325 326 327 330 332 332 334 336 337 337 337 337 337 336 335 333 333 333 332 333 333 334 333 332 331 331 333 335 334 332 333 334 334 334 336 334 332 331 329 327 326 325 325 325 325 324 322 323 322 323 325 326 326 326 326 326 326 325 325 325 325 325 324 325 326 326 327 327 328 331 331 330 330 330 331 330
313 316 315 314 315 315 315 314 313 314 315 312 312 314 311 309 314 319 319 318 318 322 324 327 330 332 332 333 335 336 335 334 334 334 335 336 335 334 333 332 332 332 331 329 329 328 329 332 334 332 330 330 332 333 333 334 334 332 330 328 328 327 325 324 324 323 323 323 323 323 322 323 325 326 325 325 326 325 325 324 325 326 325 323 324 325 326 327 327 328 330 330 330 330 330 330 330
315 316 315 315 315 314 316 315 312 314 313 311 312 314 311 310 312 315 316 316 317 321 322 323 326 329 331 334 335 335 334 332 330 332 334 336 334 333 333 333 332 331 328 328 328 327 327 330 331 330 328 328 330 331 331 331 332 331 329 328 328 327 325 324 323 323 323 323 323 323 323 322 323 324 325 325 324 324 324 324 325 325 325 324 324 325 326 326 327 328 329 330 330 330 330 330 329
314 315 315 314 314 315 316 314 313 313 313 311 313 316 314 311 311 313 316 318 319 322 322 322 323 323 326 331 333 333 332 331 329 331 334 335 333 332 333 333 331 329 326 327 327 327 327 327 328 327 326 326 328 329 329 329 329 330 330 329 328 327 326 324 323 323 322 322 322 322 322 322 323 324 324 323 323 323 323 324 325 324 323 324 324 325 325 326 327 328 330 330 329 329 329 329 329
314 314 314 313 313 314 313 312 313 312 312 312 314 317 314 311 312 316 319 320 322 323 323 325 324 323 323 324 328 331 331 330 329 330 332 332 331 332 333 332 330 327 326 326 326 326 326 325 325 325 327 328 326 326 327 327 328 329 330 330 329 328 326 324 323 322 320 320 320 320 321 321 322 323 322 322 322 322 323 323 323 323 322 323 323 323 324 325 326 328 330 329 329 329 329 329 329
314 314 313 311 311 312 312 312 312 312 312 314 315 315 313 311 315 319 321 322 323 324 325 325 326 326 324 320 324 330 330 329 329 329 330 330 330 332 334 332 329 327 326 325 325 326 323 322 322 325 329 329 325 324 325 325 327 328 330 331 329 327 326 324 322 321 320 319 318 319 320 321 321 322 321 320 321 322 322 322 322 322 322 322 322 323 323 323 324 326 328 329 329 328 328 328 327
314 312 311 311 310 312 314 312 311 312 313 315 316 316 312 312 317 322 322 323 323 324 325 326 326 326 324 320 323 328 329 328 328 328 330 329 331 333 334 332 329 328 326 325 325 326 322 322 325 327 329 328 324 323 323 324 326 326 327 329 328 327 325 323 321 320 319 318 318 318 320 320 321 321 320 320 320 321 321 322 322 322 322 322 322 322 321 322 322 322 324 325 325 325 324 323 323
314 314 313 311 309 312 312 311 310 310 313 315 315 315 312 312 317 322 322 321 322 323 324 326 326 326 325 324 324 327 328 328 328 328 329 329 331 333 333 332 330 328 327 326 325 325 325 325 325 325 326 326 324 324 323 325 325 324 324 325 325 323 323 323 322 321 320 319 318 318 319 320 320 319 319 319 320 320 320 320 320 320 320 321 321 321 320 320 320 319 320 321 320 319 319 318 318
315 315 313 312 311 311 311 314 315 313 313 314 314 313 314 315 318 320 321 320 319 322 324 325 326 326 326 326 327 327 327 327 328 328 328 330 332 332 331 331 329 328 327 327 326 326 326 326 326 325 325 324 323 324 324 324 323 323 324 324 321 320 321 322 321 320 319 318 318 319 319 319 319 318 318 318 318 319 319 318 317 317 318 319 319 319 318 318 317 317 317 317 317 316 316 315 315
314 313 312 313 314 313 311 314 317 314 312 313 313 313 315 316 317 319 319 319 319 320 323 326 325 326 327 327 327 327 327 327 327 328 328 331 332 331 330 330 328 327 328 328 328 326 326 326 326 326 324 324 324 323 323 323 322 323 324 322 320 318 318 318 319 318 315 313 314 316 319 319 317 318 318 316 316 316 317 316 314 314 315 316 316 315 315 314 314 314 314 314 314 314 314 313 312
313 312 312 314 314 314 312 312 313 313 312 313 313 314 314 314 315 318 319 320 320 319 322 325 326 325 326 326 326 326 327 327 327 327 327 329 330 329 329 328 327 326 327 328 328 328 327 326 327 327 326 326 325 323 323 322 322 323 322 321 319 317 315 316 317 316 314 312 310 311 316 319 317 316 317 316 315 314 314 313 312 311 311 313 314 313 312 312 312 312 312 312 311 311 311 311 311
313 313 313 314 313 312 312 312 313 313 313 313 314 313 312 312 314 318 319 320 320 318 322 326 325 325 325 325 325 325 325 326 325 325 326 327 329 328 328 326 326 326 327 328 329 329 329 328 329 329 329 328 326 324 324 323 323 323 322 321 318 315 315 318 316 313 314 315 311 309 313 317 317 317 316 315 315 314 313 313 311 311 310 311 311 311 311 311 311 310 310 310 310 310 310 311 311
311 312 314 313 312 312 312 312 312 312 312 312 314 313 312 314 317 319 319 319 319 318 321 325 325 324 324 324 325 325 325 326 325 325 325 325 327 328 327 326 325 325 326 327 328 329 329 329 329 329 329 328 326 326 326 325 325 324 322 321 318 314 315 316 314 311 312 315 313 310 309 310 312 316 316 315 315 314 314 313 312 312 310 310 310 311 311 311 311 310 309 310 311 311 310 310 311
311 312 312 312 313 312 313 313 311 311 311 312 314 313 314 317 317 317 318 318 317 317 320 324 324 323 323 323 324 324 324 324 324 324 323 324 326 327 327 326 326 325 325 326 327 328 328 328 328 329 329 329 327 327 327 326 325 325 324 321 318 315 314 315 314 312 312 313 313 313 312 310 312 316 317 315 314 315 314 313 313 313 312 311 311 311 312 311 311 311 311 311 311 312 310 311 310
312 312 312 312 312 311 312 312 311 310 310 311 312 312 316 318 315 315 317 317 317 317 320 323 323 322 322 321 321 321 321 321 320 320 319 321 323 324 325 326 327 326 326 326 327 327 327 327 327 327 328 328 328 327 326 326 325 326 325 322 319 318 318 317 316 315 316 316 315 315 315 315 315 317 317 315 314 315 315 314 314 315 315 313 312 312 313 313 313 312 312 312 312 312 311 311 311
Wind_Speed
6 5 5 6 6 6 7 6 5 4 5 7 7 7 3 2 1 2 3 3 4 1 1 3 2 3 2 2 3 3 5 3 4 2 0 4 2 10 14 15 24 28 28 26 27 31 29 30 30 30 29 29 29 29 29 29 29 29 30 30 28 26 25 24 23 22 20 20 19 18 18 17 16 15 14 14 14 15 16 17 18 17 17 16 16 16 15 14 14 14 14 13 12 12 12 12 13
5 6 6 6 7 7 4 4 5 4 7 7 7 7 4 5 3 2 3 2 1 3 1 2 4 5 2 4 4 4 1 4 8 6 4 4 8 12 13 18 26 29 27 26 28 28 27 28 31 31 30 30 30 29 30 30 30 30 30 29 27 25 24 24 23 21 20 20 18 18 17 16 15 14 14 13 14 16 17 17 17 16 16 16 16 16 15 15 15 14 14 13 13 12 11 12 12
6 6 7 7 7 6 2 4 6 5 7 7 7 5 4 4 2 4 5 3 4 3 3 4 4 4 4 5 4 4 1 5 6 7 6 5 9 11 14 21 25 28 27 26 27 27 25 28 31 32 31 31 30 29 29 31 31 30 30 28 26 25 24 23 22 21 20 19 18 18 16 16 15 14 14 13 14 16 16 16 16 16 15 15 15 16 16 16 15 15 14 14 13 11 11 13 12
7 6 8 9 6 5 4 5 6 6 6 7 5 5 5 4 4 6 6 4 4 3 4 4 4 2 4 3 1 1 2 4 5 6 5 6 7 12 17 22 25 26 26 26 27 25 25 30 33 32 32 31 30 30 29 30 31 29 28 27 26 25 24 23 22 22 20 19 18 17 16 15 15 14 14 13 14 15 16 16 15 15 15 14 14 15 15 15 15 15 15 14 13 11 12 13 12
6 6 8 8 4 3 4 5 5 7 6 6 3 5 5 4 6 5 5 2 2 2 2 3 3 3 3 2 2 1 3 4 4 4 5 6 9 16 19 24 25 24 25 25 27 25 26 32 33 32 32 31 31 30 29 30 29 29 28 27 27 26 25 24 23 22 20 19 18 16 15 14 14 14 14 13 13 14 15 16 16 15 14 15 14 14 14 15 15 15 15 15 14 12 13 14 13
6 7 7 8 3 1 4 5 6 8 8 7 2 6 6 4 5 4 2 1 4 3 1 2 1 3 3 3 2 3 4 1 2 4 6 8 12 17 21 24 23 23 24 25 26 25 29 33 33 32 32 31 30 30 29 29 29 29 28 27 26 26 25 23 22 21 20 18 17 16 14 14 14 13 14 13 13 13 14 15 16 15 14 15 14 13 13 14 14 14 15 14 13 13 14 14 12
8 8 6 7 3 2 7 7 7 8 6 5 3 4 2 4 5 5 4 3 6 7 5 4 3 4 2 4 2 5 4 2 1 4 7 11 15 18 21 22 21 22 23 24 24 25 31 33 33 32 31 31 31 30 30 29 29 28 27 27 26 25 24 23 21 20 19 18 17 15 14 14 13 13 14 14 13 12 13 14 15 15 13 14 14 13 13 12 12 13 14 13 13 14 15 14 12
9 6 4 6 4 4 7 7 8 7 2 1 3 2 5 7 6 6 5 4 4 6 7 7 6 5 3 3 2 5 3 1 2 5 10 14 17 19 21 21 20 22 22 22 21 26 33 33 32 32 31 31 31 31 30 29 29 27 26 26 25 24 23 21 20 20 19 18 16 15 14 13 13 13 13 13 13 12 13 14 14 13 12 12 13 13 12 11 11 11 12 12 12 13 14 13 11
10 6 3 5 5 5 7 8 8 7 3 2 3 3 4 6 7 7 7 6 4 4 7 7 8 6 5 5 3 6 4 3 5 8 13 15 17 18 19 19 20 20 21 19 20 27 32 32 32 32 31 31 31 30 29 28 28 27 26 26 24 23 22 21 20 19 19 17 16 14 14 13 12 12 12 12 12 13 13 12 13 13 12 11 11 12 12 10 10 10 10 10 11 11 11 10 9
8 5 4 5 6 6 8 8 7 6 4 4 4 3 3 5 8 8 9 7 5 6 5 5 7 5 6 6 4 5 4 6 8 11 14 15 16 17 17 17 17 19 19 16 20 28 31 32 32 32 32 32 31 30 28 27 27 27 26 25 23 22 21 20 20 19 18 17 15 14 13 13 12 11 11 11 10 13 13 12 13 13 11 11 11 10 11 10 9 9 9 8 8 9 10 8 8
6 4 4 5 6 7 7 7 7 5 3 3 3 1 3 5 8 9 10 8 7 7 7 6 7 7 6 5 4 4 5 7 9 13 15 15 15 15 15 15 15 17 17 15 20 28 30 31 32 32 33 32 31 29 28 26 25 25 24 22 21 21 20 20 19 18 18 16 14 14 13 13 12 11 11 10 10 11 12 11 11 12 12 10 10 10 9 9 8 8 8 8 8 8 8 8 7
6 5 5 7 7 7 6 6 5 4 4 5 2 3 3 5 7 9 9 9 8 7 9 8 5 7 7 5 5 6 7 7 9 14 15 14 13 14 14 13 14 15 14 14 19 27 30 30 31 32 32 31 30 28 27 25 24 23 21 20 18 19 19 18 18 17 16 15 13 13 13 12 12 11 11 10 10 10 10 10 9 11 12 10 9 9 8 8 8 8 8 8 8 8 8 7 7
6 6 6 7 6 6 6 6 4 4 5 3 2 6 4 4 6 7 8 8 9 9 10 7 4 6 5 5 5 6 8 8 10 14 14 13 13 13 13 13 14 14 13 14 19 27 30 32 31 31 32 31 30 28 26 26 24 22 20 19 18 17 16 17 17 16 15 14 13 13 12 12 12 11 11 11 10 10 9 9 9 10 10 9 8 8 8 8 8 8 8 7 8 9 8 7 6
6 4 6 7 6 6 6 6 4 5 4 5 4 6 2 1 3 5 6 9 9 6 6 5 4 5 4 4 5 6 8 10 12 13 13 12 12 12 13 13 12 12 12 12 18 22 25 32 31 30 32 31 29 28 26 25 23 22 20 20 19 16 15 16 16 16 15 14 13 13 13 12 13 11 11 11 10 10 9 9 10 9 9 9 9 8 8 7 7 8 7 6 7 8 8 7 6
6 3 5 7 6 6 6 7 4 6 2 7 5 6 2 2 1 3 4 7 7 4 5 5 2 2 3 3 3 7 11 13 13 13 12 12 12 12 12 11 10 10 10 10 14 16 20 28 30 29 30 28 28 28 26 25 23 21 19 19 18 16 15 16 15 15 14 14 13 13 13 12 12 11 11 10 10 10 9 9 9 9 9 9 8 9 8 7 7 7 6 5 5 6 8 8 7
5 4 5 7 8 7 5 5 4 6 3 7 4 6 2 3 1 1 1 1 6 6 4 5 1 1 1 0 4 12 16 16 15 14 14 13 12 11 10 10 10 10 9 8 10 12 16 21 27 29 27 25 25 27 26 25 23 19 19 18 16 16 17 15 15 14 14 13 13 12 12 12 11 10 10 9 10 9 9 9 8 8 9 9 9 9 9 8 8 7 7 6 6 6 8 9 8
4 5 7 7 8 7 5 6 4 2 5 7 5 7 4 4 2 0 1 2 6 8 3 4 3 2 3 5 10 17 18 17 16 16 16 14 13 12 10 11 11 11 9 6 6 10 14 16 22 27 25 22 23 26 25 24 21 18 18 17 15 17 16 14 14 14 14 13 12 13 12 10 10 9 9 9 9 9 9 8 8 8 8 8 9 9 9 8 7 6 6 7 6 6 8 9 9
5 6 8 8 8 7 4 5 2 1 3 5 5 7 7 3 3 2 4 5 7 7 4 4 4 4 5 8 13 17 18 18 17 16 16 15 14 12 10 12 12 12 9 7 13 14 17 16 18 25 26 23 23 25 24 22 19 18 17 16 15 15 14 14 14 13 13 12 12 11 10 8 8 8 8 9 9 9 8 8 8 8 8 8 8 9 8 8 7 6 5 6 6 7 8 8 8
7 6 7 8 7 3 1 3 2 2 4 5 4 5 6 5 3 2 6 8 8 8 7 7 7 6 7 10 13 15 17 18 17 16 16 14 14 13 12 12 12 12 10 12 18 17 17 16 17 24 27 23 22 23 21 19 17 18 17 16 15 13 13 12 12 12 11 11 11 9 8 7 7 7 8 9 9 9 9 9 9 8 8 7 7 8 8 8 7 7 6 6 7 7 7 6 7
8 7 7 8 6 3 2 3 3 2 5 5 4 4 4 5 4 2 4 8 9 8 8 8 8 7 9 12 13 15 17 17 16 15 15 15 14 14 14 13 13 12 11 13 16 15 15 18 19 21 23 22 22 20 18 18 18 19 18 17 15 14 14 11 11 12 9 9 9 8 7 7 7 6 8 9 9 8 8 8 8 8 8 7 7 7 8 8 8 7 6 6 6 5 5 5 6
7 7 9 6 3 5 4 3 3 2 5 5 5 5 2 4 4 4 4 7 8 7 6 5 5 8 11 12 13 15 16 16 16 15 14 14 13 13 12 12 13 13 12 13 14 15 16 18 18 19 22 21 20 17 17 19 19 19 19 17 15 15 15 13 13 11 9 9 8 7 7 7 8 8 8 7 7 7 7 8 8 8 7 8 8 6 7 8 8 8 7 5 4 4 4 4 5
6 8 12 7 3 6 4 2 1 2 4 5 6 5 3 3 3 3 5 7 4 4 2 1 1 6 11 12 13 15 14 15 16 15 14 14 13 12 12 11 13 14 13 13 14 15 20 19 17 20 22 19 17 17 18 18 18 18 19 18 14 14 15 13 12 10 8 9 8 7 7 8 8 8 8 6 6 7 8 8 7 7 7 7 7 6 6 8 7 7 7 5 5 4 5 5 5
7 9 10 8 7 7 4 1 1 2 5 6 5 5 5 5 4 1 6 5 5 6 2 3 1 5 11 12 12 14 14 14 14 15 15 14 14 14 14 14 15 14 13 14 14 15 19 19 16 18 20 19 18 18 17 15 14 14 16 16 13 14 15 12 10 8 8 9 9 8 7 8 8 7 7 7 7 7 7 7 6 6 7 6 6 5 5 6 6 6 6 5 5 5 5 5 6
10 9 7 9 9 9 8 6 4 5 7 7 6 6 6 6 3 1 5 3 3 3 2 1 1 7 12 12 12 13 14 14 15 16 15 14 14 14 14 13 13 14 13 15 15 15 17 17 16 18 19 19 19 20 19 15 14 13 13 14 12 14 15 12 9 7 9 10 9 8 8 8 8 7 7 8 8 7 6 5 6 7 6 6 6 5 4 5 5 5 6 5 5 5 5 5 6
13 11 7 7 8 8 10 8 7 8 7 6 6 7 6 4 4 4 5 2 1 1 1 2 6 10 11 12 13 13 13 14 16 16 15 13 13 13 12 11 12 13 14 15 16 16 17 17 16 19 21 19 19 21 20 18 16 14 15 15 12 14 15 12 9 8 10 9 8 9 8 8 8 8 8 9 9 8 6 5 6 7 7 7 7 6 5 5 5 5 6 5 5 5 5 5 6
11 14 9 8 9 9 10 9 9 8 6 4 7 8 4 1 4 6 6 3 1 1 2 5 8 10 10 12 12 13 14 15 16 17 13 11 13 14 12 12 13 13 14 16 17 17 19 19 16 19 22 19 19 21 18 17 18 16 16 15 14 16 14 11 11 10 10 9 8 9 8 8 7 8 8 8 8 7 6 5 6 7 8 9 8 6 5 5 5 5 6 5 5 4 4 5 6
4 12 11 10 11 9 8 9 10 8 6 7 9 8 4 4 4 6 6 4 3 3 4 6 9 10 10 12 13 13 14 16 18 16 12 11 12 12 11 11 12 13 14 17 18 17 19 20 17 19 23 20 20 21 17 15 17 17 16 16 15 15 12 11 12 11 10 9 8 9 8 7 6 7 7 7 8 7 7 6 7 8 9 8 7 6 6 5 5 5 5 5 5 4 4 4 6
2 6 8 11 11 10 10 11 10 7 6 7 8 8 4 5 7 5 6 6 4 4 6 7 8 9 11 13 14 13 12 17 19 13 12 13 10 10 10 11 12 13 14 16 17 17 18 20 17 18 24 24 23 23 18 14 15 16 16 16 14 12 12 12 13 10 9 9 8 8 8 8 7 7 7 7 8 8 8 8 7 8 8 8 7 7 7 6 5 5 5 5 5 4 4 4 4
5 5 7 10 10 11 13 12 8 7 5 5 6 8 7 9 10 5 5 5 5 5 6 8 8 9 11 13 13 11 12 17 16 10 10 11 8 9 11 12 14 14 14 15 15 14 17 21 20 19 23 24 22 20 17 14 13 13 14 14 13 12 13 12 11 9 8 8 8 8 9 8 9 11 10 8 9 8 8 8 7 8 8 8 8 8 8 7 6 6 6 5 5 4 5 4 4
7 8 8 7 8 10 12 11 7 8 5 5 6 8 9 13 13 7 6 6 6 6 7 8 9 8 10 12 11 11 13 16 13 8 8 10 9 10 11 12 15 15 14 15 13 13 18 23 22 19 18 20 18 15 14 13 12 12 12 12 13 13 12 10 8 8 9 9 9 9 9 9 9 11 10 8 8 7 7 7 7 7 8 9 10 10 9 7 7 8 8 6 5 4 4 4 4
7 8 7 6 7 6 11 10 9 10 5 6 9 8 7 11 12 10 7 7 7 7 8 8 9 9 10 10 11 11 12 15 13 11 9 10 9 11 12 13 15 14 14 15 14 15 19 22 19 14 15 16 15 14 13 12 12 12 11 11 11 11 10 8 7 8 9 9 9 8 8 9 9 9 9 8 8 7 7 7 6 6 8 10 10 10 9 8 8 8 8 8 6 4 4 4 3
7 7 7 8 7 5 10 9 10 11 5 8 10 7 8 7 9 10 7 8 8 7 8 8 9 10 10 10 11 11 11 15 14 14 11 9 9 11 13 14 15 15 15 15 14 16 18 18 13 11 14 14 14 14 13 12 11 11 10 10 9 9 9 8 8 8 8 7 7 7 8 9 9 9 9 9 8 7 7 6 6 6 8 9 10 10 9 9 9 8 8 8 6 5 5 4 3
7 8 7 8 9 6 7 9 11 9 5 9 11 8 8 4 7 8 7 8 9 8 8 9 9 10 10 10 10 11 12 13 12 13 13 12 11 13 14 14 16 16 15 14 14 15 16 15 12 11 13 14 13 13 12 10 10 10 9 8 8 8 7 7 7 7 6 6 5 6 7 7 8 9 9 9 8 7 6 6 6 6 7 8 9 10 10 8 8 8 8 7 6 5 5 4 4
7 8 8 6 9 8 6 8 9 8 7 10 11 10 9 4 4 5 7 8 8 8 8 9 9 9 10 10 10 12 12 12 10 13 15 14 12 13 13 14 15 16 15 14 13 14 14 13 12 11 11 12 11 11 10 8 8 8 7 7 6 6 4 3 3 3 3 4 4 4 5 7 8 8 9 9 8 7 6 5 5 6 7 8 9 10 9 9 9 9 8 8 7 6 5 4 5
8 9 8 6 7 9 7 6 8 9 9 10 10 10 11 8 5 5 7 8 8 8 7 8 9 9 9 9 10 12 13 13 12 14 14 12 11 11 12 13 15 15 14 14 12 12 12 11 10 9 9 10 9 8 8 7 8 7 6 6 6 4 3 3 3 2 2 3 4 4 5 6 7 8 8 8 7 7 6 6 5 6 6 7 8 9 11 10 12 11 9 8 8 7 5 5 4
8 8 8 8 7 8 8 4 6 6 7 9 10 10 10 10 9 8 7 6 8 7 6 7 8 8 8 9 9 11 13 13 13 16 15 13 11 11 12 13 14 13 12 13 13 12 12 11 9 8 8 8 8 8 9 9 8 7 6 6 5 5 4 4 3 3 3 3 4 5 5 6 7 7 7 7 7 7 6 6 6 6 6 7 7 9 14 13 12 11 9 9 9 8 6 6 6
4 6 7 8 6 7 8 6 5 2 6 8 10 10 10 11 10 9 8 6 7 8 8 8 8 8 8 9 9 11 12 13 15 17 15 14 12 12 12 12 14 13 12 13 14 13 13 12 9 8 8 9 9 10 10 10 9 8 7 5 5 5 5 4 4 4 4 5 6 6 6 6 7 7 7 7 7 7 7 7 7 7 6 6 5 7 13 13 11 9 8 8 8 7 7 7 7
5 6 7 7 7 6 6 5 5 3 5 7 8 8 11 12 8 6 7 8 8 9 9 9 9 9 8 9 10 10 10 11 15 16 15 14 13 12 11 10 13 14 13 14 14 12 12 12 10 9 9 10 11 12 11 9 8 7 6 6 5 5 5 4 5 5 5 6 8 8 7 7 7 6 7 7 7 7 7 7 7 7 5 5 5 6 11 14 11 7 7 8 7 7 6 6 8
6 6 6 6 7 7 5 5 4 4 4 5 6 8 10 9 6 5 7 9 6 4 5 5 7 8 8 9 10 10 11 12 14 15 16 16 15 14 12 9 10 11 11 12 12 12 12 11 11 11 12 12 12 12 11 9 9 9 8 8 6 5 6 6 6 6 6 7 7 8 8 8 7 7 7 7 7 6 6 7 7 7 6 5 6 6 9 13 13 9 7 8 8 7 6 6 8
8 6 7 6 6 7 5 7 6 4 3 5 4 7 6 6 6 5 6 6 4 2 3 3 4 6 7 8 8 9 11 12 14 15 15 17 18 15 8 2 2 3 6 10 12 14 15 16 16 14 13 12 12 10 10 11 12 11 11 10 8 7 8 8 8 8 7 8 7 8 9 10 9 8 8 7 7 6 5 6 6 6 6 5 5 6 7 9 11 11 8 7 8 8 7 7 7
9 8 8 6 6 8 4 5 6 4 4 5 6 7 5 7 8 7 6 5 5 4 5 6 6 6 6 7 7 8 9 10 12 14 14 14 12 10 9 8 8 9 11 15 18 17 16 14 13 12 9 7 8 10 10 12 13 12 12 11 9 9 9 8 8 8 8 8 8 7 8 9 9 9 9 8 8 7 6 5 5 5 5 5 5 5 5 6 8 9 8 8 8 7 7 7 7
8 10 11 8 6 7 3 3 4 6 6 6 7 7 5 8 9 8 7 6 8 6 5 7 8 7 7 8 8 8 9 8 9 11 12 12 15 17 17 17 17 17 18 22 20 14 13 13 13 11 9 7 6 9 11 11 11 12 12 10 8 8 8 7 7 8 7 7 6 6 6 6 7 8 8 8 8 8 7 6 4 4 4 4 4 4 5 5 6 7 8 9 8 7 7 8 8
6 9 13 12 9 6 4 5 6 6 4 5 6 6 4 8 9 7 6 7 9 8 7 7 7 8 8 8 8 8 8 7 7 8 9 15 20 20 18 18 19 21 22 22 18 17 14 14 15 11 10 10 8 10 12 10 10 10 9 8 6 6 6 7 7 7 6 6 6 6 6 6 6 7 8 8 8 8 7 6 4 3 3 3 4 4 5 5 5 6 7 8 8 8 8 8 8
4 8 13 14 11 8 7 7 7 4 1 5 7 8 4 7 8 8 7 8 9 9 9 8 8 8 8 8 7 7 7 6 5 6 10 15 18 17 16 16 15 14 12 10 13 17 16 15 16 13 12 12 12 13 12 9 9 10 8 7 7 6 7 8 8 7 6 6 6 6 6 7 7 7 8 8 9 8 6 5 4 3 3 3 4 4 5 5 5 6 6 6 6 7 7 7 7
2 7 8 10 9 8 7 7 7 4 2 6 9 8 6 6 7 7 8 10 10 10 9 9 8 8 7 7 6 5 6 6 5 6 10 14 15 15 15 14 12 12 13 11 9 9 12 13 15 13 11 12 13 14 12 8 8 10 8 7 7 7 8 9 9 8 7 7 7 7 6 7 7 7 7 8 8 7 6 5 5 5 4 4 4 4 5 5 5 6 7 6 6 6 5 5 7
3 5 6 5 6 5 5 7 6 4 6 8 8 5 6 5 8 8 9 9 8 7 7 6 6 5 4 4 4 4 5 6 7 8 10 14 15 14 13 13 15 17 17 15 11 6 6 6 9 10 9 9 10 13 13 9 8 9 7 7 8 8 9 9 9 8 7 7 7 7 6 6 7 7 7 8 7 7 6 5 6 6 6 5 4 5 5 5 5 6 6 5 5 5 4 5 6
2 6 8 6 7 5 5 6 4 5 8 7 6 3 5 5 7 6 5 4 3 3 4 7 7 5 3 1 4 5 6 6 8 10 12 15 16 14 13 16 20 22 20 20 19 16 10 5 6 7 6 6 7 10 12 11 10 9 6 7 8 8 9 9 9 9 8 8 8 7 7 6 7 8 8 8 7 7 6 7 8 8 6 5 5 5 5 5 5 5 6 6 5 5 5 5 5
4 8 8 7 6 5 6 5 5 7 7 6 5 2 6 6 5 5 6 7 6 4 3 6 7 5 3 1 2 4 5 7 10 11 13 15 14 13 16 21 24 24 24 24 23 23 18 11 11 10 8 9 9 10 11 12 11 9 6 7 8 8 8 9 9 9 8 8 8 8 8 8 9 9 9 8 8 7 7 8 8 7 6 5 5 5 5 6 5 5 6 6 5 5 5 5 6
7 8 8 8 7 6 7 7 7 8 4 4 4 3 6 5 5 7 7 7 7 6 6 6 6 5 3 1 2 3 5 8 10 11 12 13 12 13 19 24 23 21 22 21 18 20 22 19 18 19 17 14 13 13 14 15 13 10 7 6 6 7 6 6 8 9 9 8 8 8 9 9 10 9 9 9 8 8 8 8 7 7 7 6 6 6 6 6 6 6 7 8 7 7 6 6 7
9 9 8 8 6 6 8 7 8 7 3 4 3 2 6 6 6 8 8 8 7 7 6 6 6 6 4 3 4 5 7 8 9 10 11 11 11 14 20 24 23 21 20 18 17 21 28 27 24 24 22 19 18 20 19 17 15 13 10 7 6 7 6 6 7 8 9 9 8 9 8 9 10 10 9 9 8 8 8 8 8 8 7 7 7 7 7 7 6 6 8 9 9 8 7 7 7
10 9 8 8 6 6 6 6 7 8 5 5 4 3 6 6 4 7 6 7 7 7 8 8 7 7 5 6 7 7 8 8 9 10 11 12 13 16 21 23 24 22 19 19 19 21 27 30 27 23 21 21 24 22 17 15 15 15 15 13 10 8 8 7 7 8 9 9 9 9 8 8 10 10 9 9 8 9 9 9 9 8 8 7 8 7 7 6 6 6 7 8 8 7 7 7 6
8 6 7 7 5 4 2 0 1 3 4 5 5 4 1 2 4 6 5 6 9 9 9 9 9 8 7 8 8 8 8 9 9 10 10 13 16 18 19 21 23 22 19 19 19 19 21 23 24 24 23 21 21 19 15 15 16 17 17 17 14 11 8 8 8 9 11 11 11 10 8 7 9 9 9 8 8 8 9 9 9 9 9 8 8 7 6 6 6 6 7 7 7 6 6 6 5
6 7 7 3 2 3 3 2 3 1 5 5 6 5 3 4 4 6 5 6 10 9 9 10 10 9 8 8 7 7 8 8 8 9 9 12 14 14 11 13 18 21 21 20 20 21 22 20 20 26 28 21 16 18 18 19 20 19 19 18 15 11 10 10 10 11 13 13 13 11 8 7 8 8 7 7 8 8 9 9 9 9 9 8 8 7 6 6 6 7 7 7 6 6 6 6 6
4 7 7 3 0 3 4 4 3 4 8 5 6 8 7 7 5 6 5 6 10 9 9 9 9 9 9 8 8 8 8 8 8 9 8 8 9 8 7 8 12 17 20 21 21 20 22 22 20 24 25 18 15 19 20 21 21 20 20 18 15 13 12 11 12 12 12 13 15 13 9 7 8 7 7 7 8 8 8 9 9 9 9 9 8 7 7 7 7 7 7 7 7 6 7 6 6
3 2 5 5 4 6 6 6 5 7 8 5 7 10 9 7 5 6 5 6 8 7 7 7 8 9 8 8 8 8 8 7 8 8 7 6 5 6 7 8 11 15 18 21 20 18 19 20 19 19 19 15 15 16 17 18 19 18 19 19 17 16 14 12 12 12 11 12 14 13 9 7 7 7 7 7 7 8 8 8 9 9 9 9 8 8 8 8 8 8 8 8 7 7 7 7 7
3 3 5 5 4 5 5 6 6 6 7 7 7 9 7 4 3 5 5 6 6 5 5 6 8 8 7 8 8 8 7 7 7 7 7 8 7 7 8 9 11 14 16 17 18 17 17 16 15 15 15 15 14 15 16 16 16 16 18 19 19 18 16 14 13 13 11 11 12 13 10 9 7 6 7 8 8 8 8 9 9 9 9 9 8 8 8 8 8 8 8 8 8 7 7 7 7
7 8 8 6 4 3 4 5 5 5 7 6 7 8 5 4 5 4 5 5 4 3 2 5 8 8 8 8 7 7 8 8 8 8 8 9 10 11 11 10 11 12 13 13 14 14 14 13 13 13 14 16 15 15 15 15 15 15 16 20 21 19 16 14 13 13 12 10 10 10 10 9 8 7 7 8 8 8 9 9 9 9 9 9 8 8 8 8 8 8 7 7 7 6 7 7 6
5 8 10 10 7 6 6 7 6 5 6 5 7 8 3 5 3 3 5 4 3 2 4 7 9 9 9 9 8 9 9 8 9 9 8 9 10 12 13 12 12 12 12 11 11 12 12 12 12 13 14 16 16 15 15 14 14 14 16 20 21 18 15 14 14 12 10 9 9 9 9 9 9 7 7 7 8 9 9 9 9 9 9 9 8 8 7 7 7 7 7 6 6 6 6 6 6
Wind_Direction
162 162 163 167 174 188 191 213 229 190 237 247 230 241 166 125 333 249 245 229 246 147 226 266 199 199 193 296 237 256 334 330 349 338 274 42 129 158 158 158 154 152 150 149 151 156 157 159 158 155 153 151 149 148 148 148 150 152 154 154 153 151 149 150 150 149 146 146 145 146 146 147 149 146 144 141 138 136 138 140 141 140 141 142 140 140 138 138 135 135 134 132 130 128 132 130 128
171 170 170 173 186 207 183 208 246 191 216 238 232 235 125 124 185 253 327 318 314 73 106 212 183 198 244 315 273 249 269 40 33 51 67 82 137 149 158 156 155 153 148 147 150 151 153 158 158 154 152 150 148 148 148 149 150 152 155 155 154 151 150 151 149 147 146 148 148 149 148 149 150 146 146 141 137 135 135 138 138 139 141 142 141 141 140 141 140 140 139 138 136 135 138 132 129
185 179 176 182 194 225 202 201 246 226 214 235 230 197 141 173 167 46 27 48 79 94 132 136 157 179 228 231 228 240 155 75 65 72 86 132 141 151 159 155 157 153 147 146 149 151 153 158 158 154 152 150 149 149 149 150 152 153 155 154 153 151 150 150 149 149 150 152 151 150 150 150 150 148 147 143 139 135 133 136 139 140 141 142 143 143 142 143 143 144 142 141 139 139 141 132 128
186 194 192 193 194 222 216 206 239 246 230 234 225 139 162 178 87 55 54 78 99 147 152 149 155 118 265 233 133 243 95 88 77 61 115 151 135 154 161 156 157 154 151 148 150 152 155 160 157 154 151 149 149 149 150 150 151 152 153 153 151 151 150 151 151 152 153 154 152 151 152 151 151 151 149 148 146 141 138 138 138 138 139 141 143 144 143 143 145 146 145 144 143 142 139 132 129
187 202 210 219 212 213 222 220 233 243 237 237 238 111 146 109 62 43 57 95 146 163 148 184 152 118 268 17 23 271 74 90 88 62 127 133 123 150 160 156 157 158 156 150 152 153 157 160 155 153 150 148 149 148 149 150 151 151 152 151 152 152 151 152 152 154 155 154 153 152 154 155 154 154 153 151 149 147 145 142 139 135 134 137 141 143 143 144 145 148 147 147 147 145 140 135 133
181 186 209 242 263 287 237 225 223 232 237 258 290 106 121 72 32 358 5 219 202 214 203 219 159 162 193 82 11 19 47 37 114 108 135 139 137 150 156 157 159 160 159 155 155 154 156 158 154 153 150 148 148 147 148 149 151 152 153 152 153 153 152 153 153 155 156 155 153 154 156 158 158 158 155 150 148 147 144 143 140 137 133 130 136 141 142 143 145 149 149 148 150 151 145 141 139
181 178 190 227 234 230 235 228 229 231 222 255 294 103 71 1 348 315 294 250 207 208 220 226 221 217 168 120 153 75 67 303 48 122 135 144 146 152 156 161 164 162 162 158 154 151 155 156 154 153 150 148 148 148 148 150 153 155 155 154 154 154 153 153 154 156 155 156 154 156 159 159 160 159 156 150 149 147 144 144 142 141 135 127 131 138 141 142 144 148 148 148 150 152 150 147 145
197 198 185 214 204 203 235 236 238 241 184 107 289 292 328 331 316 292 284 268 210 196 211 211 219 231 138 150 178 98 94 36 93 121 131 145 150 154 159 164 167 166 163 158 151 149 154 155 155 154 152 151 149 149 150 152 155 156 155 153 153 153 154 155 157 158 157 157 157 159 160 159 157 157 156 151 150 150 148 146 143 141 134 126 129 136 139 140 144 145 146 149 150 154 155 151 147
203 213 190 220 220 205 234 240 238 248 251 296 278 279 315 310 290 281 274 254 230 217 215 196 213 222 149 163 122 107 108 93 122 132 141 149 151 156 161 167 168 167 162 157 151 148 154 157 157 156 153 153 151 151 152 154 155 154 155 155 155 154 156 158 160 161 159 159 159 161 158 155 153 152 153 152 153 149 147 145 144 141 132 126 123 131 138 138 141 143 147 151 152 155 154 151 147
201 220 207 222 232 219 230 237 235 242 252 281 283 298 316 288 277 270 265 253 235 218 198 174 203 204 156 160 112 110 114 115 135 140 149 149 151 158 161 170 169 164 161 155 146 146 156 160 159 158 155 154 153 154 153 153 153 154 156 157 159 158 159 160 162 164 163 161 160 160 156 153 151 151 151 150 150 144 143 145 144 138 130 126 121 125 135 138 143 144 145 151 153 153 151 151 153
202 212 222 226 228 228 231 232 229 228 234 263 258 5 332 282 275 265 258 252 240 210 172 174 193 184 165 151 105 108 121 134 147 145 150 149 153 159 161 169 165 164 162 149 141 147 158 161 160 158 154 154 155 156 153 150 152 154 155 157 160 160 163 163 164 164 164 162 158 158 155 154 151 150 149 147 146 140 142 146 145 139 130 125 124 126 132 138 144 145 145 152 156 154 154 151 154
216 191 212 229 228 232 238 251 241 243 243 238 243 43 349 268 258 256 250 238 229 203 179 186 180 170 170 147 109 123 138 142 147 148 148 148 152 156 160 160 159 165 163 148 144 152 158 160 161 156 152 154 158 157 152 150 152 155 152 155 161 163 166 167 164 164 165 162 156 155 150 151 150 148 146 145 145 141 143 146 141 139 135 128 128 131 136 143 147 150 152 162 166 164 161 152 151
232 201 212 231 244 249 249 263 257 267 249 200 12 8 343 254 244 256 259 235 211 194 180 179 169 174 169 127 117 136 146 138 142 150 147 147 149 153 155 152 161 164 158 153 150 155 159 161 160 153 152 157 161 159 155 155 155 156 149 149 161 166 170 170 165 164 164 159 154 149 143 146 149 148 146 145 146 143 142 140 136 138 138 132 134 134 139 154 160 162 162 168 172 174 169 157 159
234 221 232 238 247 255 255 258 246 249 227 110 38 351 344 305 276 260 246 209 187 171 146 149 182 184 165 133 148 159 153 143 142 147 145 146 145 149 153 151 157 157 161 155 147 154 160 162 158 150 154 161 163 159 157 156 156 154 146 147 158 166 173 173 166 163 159 153 147 142 142 143 146 148 148 148 147 144 142 137 134 134 133 130 134 134 140 156 158 160 161 165 172 177 170 159 160
236 242 246 248 248 244 240 247 260 250 189 89 35 342 324 76 344 234 216 198 154 108 122 140 209 215 181 196 181 148 148 146 140 140 136 136 136 139 149 148 141 148 167 153 139 151 152 153 154 151 156 164 163 159 157 156 156 151 147 151 157 161 172 177 166 157 152 144 140 137 139 139 141 147 148 148 145 142 139 136 134 132 134 131 131 134 139 146 141 139 137 141 156 168 165 156 155
234 248 236 245 248 237 222 222 248 248 132 85 39 343 312 105 19 256 47 272 128 133 174 141 143 325 127 8 84 119 138 141 135 135 130 129 131 134 141 132 128 129 134 139 136 144 147 146 148 151 158 166 162 158 158 159 159 154 152 157 156 160 172 174 160 152 145 137 136 135 135 135 138 143 143 143 141 139 138 137 138 138 139 132 131 136 137 141 140 128 113 112 125 148 159 154 152
219 241 236 237 239 233 222 208 217 240 101 86 49 360 334 94 77 115 107 241 139 146 179 114 116 37 52 66 87 114 131 133 131 132 129 131 133 140 135 112 119 122 116 126 112 126 147 148 148 153 160 166 163 160 160 160 163 159 156 159 159 165 171 166 157 151 145 140 142 139 135 139 141 139 138 140 138 137 139 139 138 139 141 135 133 137 137 141 142 129 112 105 106 129 147 151 150
207 224 230 234 234 228 232 228 242 337 65 55 32 10 342 24 87 140 176 183 142 151 157 133 133 79 71 88 101 121 131 131 134 134 132 138 139 141 130 112 120 125 125 95 77 105 135 142 152 161 161 163 164 162 162 161 164 162 160 162 161 166 166 160 158 154 151 151 151 146 143 150 149 142 144 146 139 138 140 136 134 138 142 140 138 139 141 142 142 136 122 110 103 113 129 148 156
217 227 231 235 240 230 242 291 320 315 348 5 9 10 348 356 38 169 188 164 154 167 155 164 161 115 108 113 117 129 133 133 136 138 139 142 142 141 132 133 135 128 125 91 84 105 124 134 155 165 163 164 167 165 163 160 161 163 165 164 162 167 163 157 160 157 157 158 158 156 154 156 154 153 157 155 144 145 149 140 137 141 142 148 151 148 148 146 145 142 137 126 106 104 123 158 172
222 233 236 236 246 254 228 262 276 299 325 327 346 350 340 5 0 265 198 162 171 179 152 170 178 147 134 127 129 136 138 139 140 144 145 143 144 146 141 144 145 129 118 99 96 104 117 135 148 161 164 166 169 167 163 159 160 164 168 169 166 169 163 160 167 165 163 163 167 167 162 161 163 162 160 155 146 149 157 149 146 145 146 155 158 157 159 157 152 145 147 140 116 114 138 164 174
216 223 240 252 256 247 220 221 257 296 319 310 323 307 298 20 332 274 209 176 180 186 165 168 175 153 145 137 139 145 146 146 147 146 144 143 142 144 142 140 141 136 129 114 106 110 128 140 141 153 162 164 166 170 170 167 166 167 173 175 172 171 167 169 176 174 171 169 172 176 172 173 181 173 159 156 152 159 168 162 160 155 155 162 159 165 172 166 159 155 155 148 137 139 142 159 173
225 222 242 267 267 242 219 167 269 309 304 292 296 294 332 340 269 248 227 208 150 140 163 179 175 148 148 145 143 150 155 153 150 144 140 140 138 136 139 141 142 147 146 129 117 126 139 141 140 149 158 160 163 172 174 172 172 171 176 178 175 176 173 176 182 182 179 175 175 181 179 182 196 182 161 168 171 181 184 171 167 163 166 174 170 174 174 169 169 166 161 153 152 147 142 158 174
232 226 231 246 246 248 248 229 256 299 285 280 295 315 330 288 250 223 248 244 87 83 27 330 287 148 145 145 150 157 158 154 147 141 139 137 138 142 147 152 154 159 158 141 128 132 140 142 143 147 154 159 161 168 166 167 175 173 175 176 176 181 180 184 187 188 191 184 180 185 185 186 200 188 166 177 186 198 194 172 170 170 173 180 180 184 173 169 174 169 163 158 158 153 153 164 173
230 235 218 226 236 243 253 258 261 278 277 280 300 299 282 264 256 230 247 247 91 84 30 311 161 143 147 147 154 161 157 151 143 138 139 139 143 150 154 158 163 165 162 149 137 134 144 149 149 151 158 160 159 164 164 168 178 176 179 179 178 183 185 190 190 198 204 194 187 190 192 189 192 186 176 182 190 203 196 178 184 180 179 182 180 185 177 167 170 171 168 161 160 156 156 167 174
226 237 225 221 230 237 248 257 261 266 269 272 276 269 260 259 284 269 234 198 114 44 86 173 145 143 151 150 153 157 150 139 135 135 141 149 152 156 161 165 166 166 160 153 147 145 154 157 158 160 160 161 163 166 168 173 180 180 185 187 187 191 193 193 194 212 213 202 196 197 196 191 186 183 180 183 188 193 186 181 188 184 183 184 180 179 174 168 165 169 169 160 159 157 157 167 171
219 229 232 227 232 236 243 251 253 254 255 260 257 250 224 202 276 248 213 153 116 209 168 153 147 149 150 149 149 143 133 130 133 133 138 153 163 165 169 169 167 170 163 157 157 158 163 165 166 166 162 162 169 170 168 172 179 180 184 188 189 198 204 199 201 217 214 206 202 198 198 193 186 183 182 182 183 180 177 179 186 188 187 185 179 171 162 162 163 163 164 158 153 153 153 163 167
204 225 233 236 243 239 242 249 249 252 245 239 251 248 184 148 241 222 164 129 159 166 149 150 153 153 149 147 141 128 126 130 128 123 132 157 170 170 168 171 170 170 167 165 168 168 170 170 168 168 168 167 171 175 171 171 180 181 183 187 187 195 204 203 208 213 209 208 204 196 197 193 190 191 185 180 176 171 175 183 189 188 185 182 172 163 156 155 159 157 158 151 142 140 137 151 163
211 223 230 234 241 237 237 243 241 246 234 218 239 247 186 169 228 223 121 125 175 158 144 155 161 153 148 148 137 126 128 128 125 132 157 166 170 165 164 176 176 174 177 177 177 174 172 170 168 172 178 178 177 179 178 172 178 180 182 186 182 184 195 204 206 204 202 207 206 197 194 192 193 198 190 179 176 173 177 184 189 185 177 173 165 158 152 147 150 147 146 142 131 127 125 133 151
226 222 237 225 226 232 229 228 226 230 214 179 216 235 206 197 219 213 118 140 173 161 155 155 160 155 149 147 133 126 133 131 135 161 169 167 172 159 163 177 177 181 187 188 182 175 174 173 175 179 181 183 181 179 178 175 174 177 184 185 177 178 192 200 199 199 203 210 215 207 197 192 194 199 194 184 181 179 183 185 185 184 175 168 162 155 150 148 150 145 141 137 130 123 120 126 136
219 215 243 229 222 228 213 208 208 217 201 151 205 235 217 207 206 186 144 166 177 169 168 158 157 155 147 144 131 129 139 137 149 180 168 174 180 157 164 176 178 185 187 191 188 175 179 184 185 183 181 184 185 181 179 179 174 175 185 182 176 180 189 197 197 199 202 207 219 217 207 199 198 205 203 194 188 185 188 186 185 186 176 169 161 154 153 156 157 152 150 143 137 132 122 127 128
214 206 227 234 240 212 178 185 199 206 181 162 212 242 233 204 180 165 156 172 188 181 173 163 156 154 151 147 139 141 143 138 156 193 188 182 180 158 167 172 177 186 184 191 193 182 186 191 191 189 186 185 184 184 183 183 179 177 181 177 177 180 184 198 199 195 195 197 207 207 200 194 196 208 208 196 188 185 186 186 188 185 174 169 161 157 158 163 162 155 152 147 147 146 132 129 128
210 209 213 218 233 188 158 175 199 206 172 175 214 238 238 209 147 149 167 178 195 194 175 168 162 157 156 157 154 149 140 136 161 201 197 185 183 166 168 172 177 185 184 189 191 190 194 193 192 192 189 184 180 185 186 183 181 179 177 176 182 182 181 188 180 177 179 182 194 193 186 184 186 196 198 193 187 185 185 186 186 180 171 166 161 159 162 166 162 150 147 147 148 153 148 140 135
204 218 224 207 213 208 168 168 194 214 181 180 215 240 240 205 127 147 173 183 198 199 179 172 169 161 160 165 162 153 143 139 168 207 198 187 188 175 173 174 179 183 184 191 189 191 196 190 190 192 187 187 186 186 184 183 181 177 175 174 178 176 176 176 167 169 167 170 192 192 181 174 176 183 187 187 185 182 180 180 180 176 172 166 164 163 162 167 160 145 144 145 143 158 166 156 154
194 211 226 208 211 223 188 158 175 200 207 203 211 233 246 225 136 162 183 192 202 202 186 172 171 168 166 166 164 159 153 149 173 205 201 192 185 175 173 171 177 182 186 195 193 192 193 183 183 189 189 189 186 179 175 173 164 161 161 158 160 158 155 148 149 165 159 168 183 182 178 167 168 176 179 179 177 174 169 170 171 171 169 165 169 163 152 167 175 159 153 155 151 158 164 158 169
197 200 215 209 209 227 215 163 154 178 207 219 209 219 241 238 200 175 183 197 209 207 187 173 175 175 171 170 168 162 158 159 178 198 198 193 184 173 169 168 175 179 182 191 193 192 185 172 170 184 197 190 177 167 159 148 142 141 141 143 144 132 117 98 92 105 128 153 157 159 166 160 163 168 170 171 163 159 157 160 162 163 165 163 169 153 134 159 184 172 169 174 163 158 158 159 173
211 199 212 215 201 213 216 157 126 178 213 218 220 224 234 237 218 189 173 188 211 207 184 178 179 178 178 178 173 166 162 163 180 195 193 192 191 176 164 166 173 174 176 182 190 190 173 156 156 174 193 183 167 163 156 149 142 138 140 141 133 116 98 84 78 81 97 119 129 135 143 145 151 152 154 154 148 149 149 152 153 154 162 161 168 150 137 159 185 174 168 171 161 156 160 165 173
229 206 215 222 211 204 202 164 123 184 239 223 224 232 233 238 226 194 172 178 205 203 189 190 188 183 186 185 177 169 164 163 175 186 190 194 193 179 168 166 169 173 177 181 186 185 167 155 153 159 171 172 170 170 163 156 146 141 144 138 122 111 97 85 82 78 88 104 113 117 121 125 131 133 135 137 138 142 141 143 146 149 158 156 157 145 141 160 184 175 157 152 155 155 156 165 169
232 221 214 213 218 211 180 154 133 162 243 231 215 234 239 235 221 178 177 195 205 204 196 195 193 189 188 188 181 168 160 161 169 175 183 193 195 188 178 168 171 178 182 185 183 174 165 166 166 161 165 172 178 176 164 155 147 142 137 127 116 103 86 84 93 94 96 104 110 112 115 118 122 125 130 134 136 138 139 141 144 147 152 151 149 140 142 156 171 175 160 149 154 159 161 168 170
226 221 219 214 211 206 162 137 152 172 238 239 206 232 239 218 195 169 196 208 199 195 199 195 193 191 189 189 185 172 162 160 166 173 179 184 189 192 190 180 179 181 181 181 170 150 151 168 174 172 174 178 179 173 161 148 135 131 129 122 114 100 86 86 96 103 106 106 109 114 117 118 120 124 129 132 134 137 140 140 140 144 147 150 153 149 150 157 162 170 171 158 154 162 173 179 183
225 218 218 213 187 204 196 149 157 175 246 269 238 236 228 186 181 185 202 205 179 162 191 195 197 196 194 192 189 179 171 166 168 175 179 182 184 185 186 175 129 144 163 168 160 154 163 178 179 173 173 176 172 158 144 141 138 135 135 129 120 112 103 102 104 102 103 103 104 108 113 116 118 120 123 124 123 126 130 132 134 137 142 149 153 154 159 162 163 168 175 171 165 168 175 180 193
217 221 228 221 183 216 233 134 153 184 204 242 241 227 201 178 192 188 177 189 201 204 196 197 199 201 203 198 193 188 185 181 172 172 178 179 165 132 104 90 88 96 130 163 174 170 169 169 161 154 156 159 154 147 142 144 145 139 138 135 127 123 121 123 122 114 110 108 104 104 107 112 117 118 120 118 115 114 116 118 123 128 134 143 151 159 164 166 167 169 175 179 182 186 182 181 196
209 213 229 245 217 217 233 149 190 213 193 196 220 221 177 171 190 177 158 184 202 204 205 203 194 194 204 201 195 193 194 193 179 174 170 146 117 113 122 134 140 142 157 179 179 153 132 127 120 120 135 135 132 151 156 152 148 143 143 144 140 138 137 136 133 130 129 119 111 111 110 113 118 120 121 119 115 113 113 113 114 125 138 149 161 169 169 176 181 176 176 182 189 195 191 184 188
217 192 209 231 234 223 229 218 220 231 192 162 212 239 171 166 183 167 162 188 188 188 202 206 194 193 203 202 191 189 191 190 179 171 150 127 124 133 139 141 148 158 174 182 162 132 125 127 129 138 149 146 143 158 164 159 154 153 151 148 141 140 136 131 130 131 132 127 124 124 120 121 123 126 128 124 118 115 112 111 111 127 155 164 172 177 174 185 191 178 173 180 184 185 190 189 181
211 156 191 214 218 217 222 226 229 235 132 145 210 244 210 170 170 158 170 190 183 183 195 197 195 193 197 198 187 182 183 178 164 149 136 131 135 140 138 138 143 147 150 138 126 137 144 136 142 159 165 160 163 170 168 163 161 156 151 145 135 131 134 136 138 135 133 131 128 127 125 122 121 125 129 126 121 117 114 116 118 124 144 154 162 167 164 167 168 161 162 170 175 179 191 194 181
145 128 192 208 207 215 217 224 228 216 204 198 199 222 224 176 152 154 175 186 177 175 184 185 184 185 188 191 181 167 164 161 145 131 136 136 135 137 136 134 129 115 109 106 107 123 128 134 149 158 163 164 168 173 167 161 164 160 155 147 136 131 138 143 144 140 137 133 129 126 124 120 116 115 120 120 115 108 106 112 118 118 120 127 136 140 140 144 149 152 154 159 167 173 184 187 183
94 130 179 181 189 209 215 226 221 191 224 219 181 198 233 179 155 169 182 182 166 151 155 143 132 144 165 183 176 157 144 141 134 123 132 137 135 137 137 129 118 105 110 135 151 135 109 139 159 151 155 166 171 176 172 165 165 166 164 155 147 143 146 150 148 145 142 139 136 132 129 126 121 116 114 111 102 95 93 100 110 109 103 101 106 118 126 135 145 144 141 149 159 162 165 170 176
123 177 179 170 182 191 209 226 222 207 221 208 170 211 258 193 170 170 153 136 86 84 117 89 73 79 89 171 195 179 157 139 134 124 126 134 135 140 138 126 115 106 116 140 157 163 163 177 172 154 154 169 184 187 182 181 176 174 175 168 161 157 157 157 151 149 148 144 142 137 134 132 126 121 115 105 96 94 93 95 103 101 93 92 95 104 114 122 133 132 129 137 146 147 147 148 152
207 203 189 182 185 185 202 204 206 225 220 173 153 238 253 217 170 126 87 69 44 21 37 48 46 52 51 24 202 178 156 140 135 128 127 130 134 142 135 124 118 119 134 149 157 162 165 171 179 189 199 193 201 203 193 193 187 178 183 183 177 168 166 164 154 150 147 142 140 137 136 134 129 124 118 109 100 101 101 99 101 101 95 94 95 97 101 106 111 113 119 128 135 138 137 136 137
210 211 195 194 193 191 205 201 204 223 209 139 147 235 234 204 101 81 68 53 37 23 18 23 32 38 40 101 169 156 145 137 134 130 131 131 135 142 134 127 127 129 139 154 161 158 158 169 187 202 208 204 208 211 203 199 193 184 185 186 178 170 171 168 154 146 142 137 135 134 134 134 130 123 116 111 105 105 107 104 102 102 101 98 98 97 95 96 98 104 113 120 125 129 129 129 130
204 205 199 207 205 196 205 207 208 211 167 125 144 235 217 179 87 60 58 51 37 36 34 30 41 48 59 116 142 144 140 137 133 130 131 133 139 143 134 129 132 133 142 159 171 166 166 178 193 200 200 200 207 212 207 198 192 187 185 180 171 164 164 166 155 144 137 131 127 129 131 129 126 120 113 108 108 108 105 103 100 98 98 97 98 98 93 89 91 103 110 111 113 116 116 118 121
203 209 210 222 224 214 217 221 221 214 174 137 157 210 215 187 99 59 66 67 52 48 49 47 53 63 79 102 118 128 130 127 124 126 129 132 137 137 132 131 134 139 148 162 176 182 182 186 191 193 195 201 205 205 197 187 186 190 193 195 192 177 162 158 156 145 135 127 123 122 124 125 120 115 110 105 107 109 106 102 100 98 98 99 100 101 96 89 89 102 108 104 103 106 108 110 114
195 216 221 228 235 226 217 210 295 247 196 163 178 208 206 147 101 87 95 78 59 51 56 58 58 66 80 93 105 117 122 124 127 132 134 134 135 133 130 132 138 145 151 160 176 190 194 192 189 193 205 212 206 196 187 189 196 201 203 202 198 187 166 154 156 152 140 130 125 121 119 122 118 111 107 104 104 106 105 102 100 100 101 103 104 102 97 93 93 101 106 103 100 103 108 111 114
174 209 217 207 269 249 223 149 81 298 231 186 185 201 139 140 140 113 106 74 55 44 51 61 61 68 77 82 95 105 113 124 126 120 124 128 130 133 136 131 134 144 151 160 178 188 191 193 190 197 209 214 202 192 194 201 205 205 202 197 191 183 169 162 164 159 147 135 129 125 123 121 118 112 103 99 101 103 103 103 101 102 104 106 107 101 99 103 104 105 109 108 105 109 112 111 112
195 210 200 138 102 245 242 228 181 210 230 195 183 205 187 181 175 128 108 61 44 34 41 58 64 70 79 81 89 94 97 109 110 104 108 113 122 143 162 142 138 150 157 164 176 183 190 195 192 197 204 200 186 188 195 200 201 199 194 190 185 177 173 173 168 158 155 148 132 128 137 130 119 120 114 105 105 105 105 104 102 103 105 106 106 103 104 108 109 108 109 109 109 112 112 109 110
265 241 185 177 222 217 210 228 216 206 221 204 188 205 207 200 177 133 106 46 34 27 34 56 64 68 81 89 96 99 101 111 114 111 106 93 107 145 162 154 151 158 162 169 174 177 186 194 192 192 195 188 181 183 190 195 196 193 190 186 181 176 175 177 163 148 161 164 133 123 139 135 121 127 127 121 117 114 115 112 109 109 108 109 109 109 112 113 112 111 111 112 112 112 112 109 111
226 246 201 205 243 234 210 217 222 220 224 212 194 203 206 184 113 97 72 38 26 20 35 61 70 73 85 93 97 98 97 102 102 97 91 86 94 115 135 150 154 157 163 171 174 174 181 191 191 189 189 188 186 184 189 193 192 191 190 184 180 176 175 174 162 151 167 170 130 118 131 134 137 150 141 136 132 128 130 127 123 122 119 120 118 117 119 119 119 119 119 122 121 119 116 113 117
200 212 209 206 211 236 241 223 223 240 237 216 205 209 190 91 60 60 58 38 16 14 64 90 83 80 84 85 86 85 82 83 82 79 82 87 92 98 110 125 136 146 155 161 167 170 176 185 190 190 191 192 193 193 194 194 191 189 187 183 181 180 179 176 171 170 179 174 141 133 146 150 159 170 157 148 145 141 143 142 140 137 133 132 128 124 125 124 124 124 124 127 130 128 124 121 124
230 220 216 216 209 212 227 220 209 232 248 239 226 218 160 76 51 51 51 38 37 82 126 114 93 81 78 75 72 71 75 75 74 77 79 79 82 88 95 99 106 117 126 134 146 158 166 175 183 187 191 195 197 198 196 192 189 186 182 181 182 185 189 187 183 184 187 177 156 151 164 173 176 179 170 158 153 153 154 152 151 147 143 141 137 134 133 130 130 129 127 131 135 134 130 130 135